TimeCDT,TemperatureF,Dew PointF,Humidity,Sea Level PressureIn,VisibilityMPH,Wind Direction,Wind SpeedMPH,Gust SpeedMPH,PrecipitationIn,Events,Conditions,WindDirDegrees,DateUTC
12:15 AM,71.1,70.2,97,29.97,10.0,SE,5.8,-,N/A,Rain,Light Rain,130,2013-09-20 05:15:00
12:35 AM,70.9,70.3,98,29.96,10.0,SE,3.5,-,0.01,Rain,Light Rain,140,2013-09-20 05:35:00
12:55 AM,71.1,70.7,99,29.95,10.0,Calm,Calm,-,0.01,,Drizzle,0,2013-09-20 05:55:00
1:15 AM,70.9,70.7,99,29.95,10.0,North,3.5,-,N/A,Rain,Light Rain,360,2013-09-20 06:15:00
1:35 AM,70.9,70.7,99,29.95,10.0,NNW,5.8,-,0.01,Rain,Light Rain,340,2013-09-20 06:35:00
1:55 AM,70.9,70.7,99,29.95,10.0,NNW,4.6,-,0.01,,Light Drizzle,340,2013-09-20 06:55:00
2:15 AM,70.9,70.9,100,29.95,10.0,NNW,4.6,-,N/A,,Scattered Clouds,330,2013-09-20 07:15:00
2:35 AM,71.1,70.9,99,29.95,10.0,North,4.6,-,N/A,,Light Drizzle,360,2013-09-20 07:35:00
2:55 AM,70.9,70.7,99,29.94,10.0,Calm,Calm,-,N/A,,Clear,0,2013-09-20 07:55:00
3:15 AM,71.1,70.7,99,29.94,10.0,Calm,Calm,-,N/A,,Scattered Clouds,0,2013-09-20 08:15:00
3:35 AM,71.1,70.7,99,29.93,10.0,Calm,Calm,-,N/A,,Mostly Cloudy,0,2013-09-20 08:35:00
3:55 AM,71.1,70.7,99,29.93,10.0,Calm,Calm,-,N/A,,Scattered Clouds,0,2013-09-20 08:55:00
4:15 AM,71.2,70.9,99,29.93,10.0,Calm,Calm,-,N/A,Rain,Light Rain,0,2013-09-20 09:15:00
4:35 AM,71.6,71.1,98,29.92,10.0,Calm,Calm,-,N/A,Rain,Rain,0,2013-09-20 09:35:00
4:55 AM,71.4,71.1,99,29.92,10.0,Calm,Calm,-,0.01,Rain,Rain,0,2013-09-20 09:55:00
5:15 AM,71.6,71.2,99,29.92,7.0,NE,3.5,-,0.01,Rain,Rain,50,2013-09-20 10:15:00
5:35 AM,71.6,71.2,99,29.93,7.0,NE,4.6,-,0.03,Rain,Light Rain,50,2013-09-20 10:35:00
5:55 AM,71.6,71.2,99,29.93,7.0,NNE,4.6,-,0.05,Rain,Rain,20,2013-09-20 10:55:00
6:15 AM,71.1,71.1,100,29.93,2.5,Calm,Calm,-,0.09,Rain,Heavy Rain,0,2013-09-20 11:15:00
6:35 AM,71.2,71.2,100,29.93,3.0,Calm,Calm,-,0.17,Rain,Rain,0,2013-09-20 11:35:00
6:55 AM,71.6,71.6,100,29.93,7.0,Calm,Calm,-,N/A,Rain,Rain,0,2013-09-20 11:55:00
3:55 PM,73.4,68.0,83,29.92,10.0,North,9.2,-,N/A,,Mostly Cloudy,360,2013-09-20 20:55:00
4:55 PM,73.4,68.0,83,29.92,10.0,North,10.4,-,N/A,,Overcast,360,2013-09-20 21:55:00
5:55 PM,69.8,66.2,88,29.94,10.0,North,11.5,-,N/A,,Overcast,350,2013-09-20 22:55:00
6:55 PM,69.8,66.2,88,29.94,10.0,North,10.4,-,N/A,,Scattered Clouds,360,2013-09-20 23:55:00
9:55 PM,66.2,60.8,83,29.97,10.0,North,9.2,-,N/A,,Clear,350,2013-09-21 02:55:00
11:35 PM,63.1,59.0,86,29.99,10.0,North,4.6,-,N/A,,Clear,360,2013-09-21 04:35:00
11:55 PM,62.1,58.8,89,29.99,10.0,North,5.8,-,N/A,,Clear,350,2013-09-21 04:55:00